SCP
-0 -0 -0 -0 -0 -0 -0 -0 -0 -0 -0 -0 -0 -0 -0 -0 -0 -0 -0 -0 -0 -0 -0 -0 -0 -0 -0 -0 -0 -0 -0 -0 -0 -0 -0 -0 -0 -0 -0 -0 0 0 0
0 -0 -0 -0 -0 -0 -0 -0 -0 -0 -0 -0 -0 -0 -0 -0 -0 -0 -0 -0 -0 -0 0 -0 -0 -0 -0 -0 -0 -0 -0 -0 -0 -0 -0 -0 0 0 -0 -0 0 0 0
-0 -0 0 -0 -0 -0 -0 -0 -0 -0 -0 -0 -0 -0 -0 -0 -0 -0 -0 -0 -0 -0 -0 -0 -0 -0 -0 -0 -0 -0 -0 -0 -0 0 0 -0 0 -0 0 0 0 0 -0
-0 -0 0 -0 -0 -0 -0 -0 -0 -0 -0 -0 -0 -0 -0 -0 -0 -0 -0 -0 0 0 -0 -0 -0 -0 -0 -0 -0 -0 -0 -0 -0 0 0 0 0 -0 0 -0 0 0 0
-0 -0 -0 -0 -0 -0 -0 0 -0 -0 -0 -0 -0 -0 -0 -0 -0 -0 -0 -0 0 0 -0 -0 -0 -0 -0 -0 -0 -0 -0 -0 -0 -0 -0 -0 -0 0 0 0 0 0 0
-0 -0 -0 -0 -0 -0 -0 -0 -0 -0 -0 -0 -0 -0 -0 -0 -0 -0 -0 0 0 0 -0 -0 -0 -0 -0 -0 -0 0 0 -0 0 0 -0 -0 -0 0 0 0 0 0 0
-0 -0 -0 -0 -0 -0 -0 -0 -0 -0 -0 -0 -0 -0 -0 -0 -0 -0 -0 0 -0 0 -0 -0 -0 -0 -0 -0 -0 -0 -0 -0 0 0 0 -0 -0 0 0 0 0 0 0
-0 -0 -0 -0 -0 -0 -0 -0 -0 -0 -0 -0 -0 -0 -0 -0 -0 0 0 0 0 0 -0 -0 -0 -0 -0 -0 -0 -0 -0 0 0 0 0 0 -0 0 0 0 0 0 0
-0 -0 -0 -0 -0 -0 -0 -0 -0 -0 0 -0 -0 -0 -0 -0 -0 0 -0 0 -0 -0 -0 -0 0 0 0 0 0 0 0 0 0 0 0 0 0 0 0 0 0 0 0
0 -0 -0 0 0 0 0 -0 -0 -0 0 -0 -0 0 0 0 -0 -0 -0 -0 -0 -0 -0 0 0 0 0 0 0 0 0 0 0 0 0 0 0 0 0 0 0 0 0
0 0 0 0 0 0 0 0 0 0 0 0 -0 -0 0 0 0 0 0 -0 -0 0 0 0 0 0 0 0 0 0 0 0 0 0 0 0 0 0 0 0 0 0 0
0 0 0 -0 0 0 0 0 0 0 0 0 0 0 0 0 0 0 0 0 0 0 0 0 0 0 0 0 0 0 0 0 0 0 0 0 0 0 0 0 0 0 0
0 0 0 -0 -0 -0 0 0 0 0 0 0 0 0 0 0 0 0 0 0 0 0 0 0 0 0 0 0 0 0 0 0 0 0 0 0 0 0 0 0 0 0 0
0 0 0 0 0 -0 0 0 0 0 0 0 0 0 0 0 0 0 0 0 0 0 0 0 0 0 0 0 0 0 0 0 0 0 0 0 0 0 0 0 0 0 0
0 0 0 0 0 0 0 0 0 0 0 0 0 0 0 0 0 0 0 0 0 0 0 0 0 0 0 0 0 0 0 0 0 0 0 0 0 0 0 0 0 0 0
0 0 0 0 0 0 0 0 0 0 0 0 0 0 0 0 0 0 0 0 0 0 0 0 0 0 0 0 0 0 0 0 0 0 0 0 0 0 0 0 0 0 0
0 0 0 0 0 0 0 0 0 0 0 0 0 0 0 0 0 0 0 0 0 0 0 0 0 0 0 0 0 0 0 0 0 0 0 0 0 0 0 0 0 0 0
0 0 0 0 0 0 0 0 0 0 0 0 0 0 0 0 0 0 0 0 0 0 0 0 0 0 0 0 0 0 0 0 0 0 0 0 0 0 0 0 0 0 0
0 0 0 0 0 0 0 0 0 0 0 0 0 0 0 0 0 0 0 0 0 0 0 0 0 0 0 0 0 0 0 0 0 0 0 0 0 0 0 0 0 0 0
0 0 0 0 0 0 0 0 0 0 0 0 0 0 0 0 0 0 0 0 0 0 0 0 0 0 0 0 0 0 0 0 0 0 0 0 0 0 0 0 0 0 0
0 0 0 0 0 0 0 0 0 0 0 0 0 0 0 0 0 0 0 0 0 0 0 0 0 0 0 0 0 0 0 0 0 0 0 0 0 0 0 0 0 0 0
0 0 0 0 0 0 0 0 0 0 0 0 0 0 0 0 0 0 0 0 0 0 0 0 0 0 0 0 0 0 0 0 0 0 0 0 0 0 0 0 0 0 0
0 0 0 0 0 0 0 0 0 0 0 0 0 0 0 0 0 0 0 0 0 0 0 0 0 0 0 0 0 0 0 0 0 0 0 0 0 0 0 0 0 0 0
0 0 0 0 0 0 0 0 0 0 0 0 0 0 0 0 0 0 0 0 0 0 0 0 0 0 0 0 0 0 0 0 0 0 0 0 0 0 0 0 0 0 0
0 0 0 0 0 0 0 0 0 0 0 0 0 0 0 0 0 0 0 0 0 0 0 0 0 0 0 0 0 0 0 0 0 0 0 0 0 0 0 0 0 0 0
0 0 0 0 0 0 0 0 0 0 0 0 0 0 0 0 0 0 0 0 0 0 0 0 0 0 0 0 0 0 0 0 0 0 0 0 0 0 0 0 0 0 0
Wind_Speed_500mb
30 26 29 28 25 18 16 15 13 12 14 15 18 20 19 17 17 21 20 17 20 24 27 31 29 31 30 27 27 28 32 31 32 33 32 33 34 30 27 30 32 33 33
31 30 29 25 21 17 18 14 11 9 11 11 14 22 19 20 21 20 24 15 24 21 24 28 27 27 24 25 27 25 30 31 27 28 33 33 33 32 26 27 28 27 26
31 30 29 26 20 18 12 10 10 10 8 8 16 18 14 18 19 19 22 18 22 22 24 22 25 24 24 26 26 26 32 33 27 24 31 28 33 33 34 29 30 29 25
29 28 29 28 21 12 6 7 8 9 7 9 12 18 17 15 15 16 18 18 22 22 20 22 24 21 21 26 26 26 26 28 31 27 29 29 30 26 30 27 26 31 35
30 26 26 25 20 13 6 5 6 8 6 7 17 15 10 12 11 11 13 16 18 20 19 22 21 18 18 20 22 21 24 28 28 29 32 31 29 21 24 25 22 21 23
30 28 26 24 22 15 8 5 3 5 4 5 15 15 13 10 9 11 11 14 16 18 21 21 18 17 16 14 15 24 21 22 24 26 27 26 22 18 20 21 18 18 20
32 30 28 25 22 17 12 10 5 2 3 6 13 16 23 15 10 14 15 14 13 16 19 19 17 15 14 11 10 14 14 15 18 22 20 20 21 19 18 16 11 15 18
30 32 29 26 23 20 18 16 10 5 4 11 15 16 18 20 11 12 14 12 13 14 16 16 14 12 11 9 7 8 8 9 14 17 19 20 22 19 17 16 13 14 15
30 31 30 27 25 23 22 20 15 10 8 14 18 15 12 14 13 9 14 15 12 11 13 14 13 11 10 8 5 1 3 7 10 13 16 18 18 19 17 16 14 14 14
33 31 29 29 28 27 26 25 21 17 13 12 19 17 15 12 12 10 9 13 13 15 15 15 14 12 10 9 7 5 3 5 8 10 11 14 15 16 17 17 16 16 15
39 36 32 31 31 29 30 30 27 23 20 17 20 23 22 20 16 13 13 12 16 18 17 17 16 15 13 12 12 9 8 7 8 10 11 11 13 14 15 15 16 17 18
46 43 40 34 34 34 34 33 32 29 27 23 21 26 26 24 22 19 17 15 15 19 21 19 19 19 17 16 15 13 11 12 12 10 11 12 13 14 15 15 15 17 18
42 44 44 40 36 38 38 37 35 34 33 30 26 28 30 30 28 25 21 19 18 20 21 22 23 21 20 19 18 17 14 14 16 14 13 13 15 15 16 17 17 17 16
48 46 44 45 42 41 39 40 37 38 37 36 31 29 33 34 31 28 25 22 22 22 24 26 26 25 24 22 22 20 19 18 19 18 16 17 17 16 17 18 20 20 15
53 51 49 47 49 47 45 42 41 40 41 39 36 36 34 34 32 32 29 28 26 27 27 29 30 29 28 27 26 24 23 22 21 20 19 20 20 19 20 20 21 20 18
55 56 54 55 52 52 51 49 46 42 39 40 43 41 41 40 36 36 34 33 33 31 29 32 33 33 33 34 31 28 26 24 23 24 24 24 24 23 24 24 23 23 21
59 60 60 60 58 57 56 54 52 50 46 45 45 46 47 47 43 40 40 39 34 35 33 36 38 39 40 39 35 32 31 28 29 28 27 28 26 26 26 26 26 26 23
54 66 65 64 65 63 60 57 57 56 55 53 50 50 50 50 48 46 45 44 38 40 41 41 40 43 43 42 39 35 37 36 35 33 33 33 32 31 31 29 28 28 26
54 58 64 67 70 67 65 62 60 60 60 59 59 56 55 53 52 51 49 45 43 47 48 46 45 47 46 45 43 42 42 44 41 40 40 37 35 34 35 30 27 26 26
55 65 65 64 68 70 68 68 67 66 64 66 67 65 62 60 57 55 54 51 49 53 55 53 51 49 49 47 48 51 49 49 49 48 46 42 40 38 36 31 28 26 25
48 58 72 67 63 71 76 76 77 78 72 73 74 71 69 67 64 63 60 55 56 60 58 57 56 54 54 50 52 56 56 56 55 53 49 46 42 38 37 36 32 30 27
57 50 59 74 71 63 73 78 77 75 77 76 76 78 76 74 72 71 67 64 63 64 63 64 64 64 61 55 56 54 57 57 52 43 36 27 27 33 34 34 35 36 24
64 60 52 60 76 69 64 73 79 81 80 81 85 83 82 80 79 77 76 74 73 70 71 69 69 70 70 64 62 54 22 20 27 33 37 37 40 36 31 29 33 26 32
60 65 57 50 63 76 71 69 76 79 83 81 80 81 81 81 83 83 83 83 82 80 79 78 73 73 74 79 72 73 73 73 45 41 34 32 38 39 42 35 29 33 38
45 52 63 53 53 68 79 72 68 76 77 79 81 78 76 76 77 77 82 87 88 89 87 87 85 81 81 82 85 82 78 76 78 77 71 69 58 47 35 37 35 38 38
21 29 34 48 51 52 72 77 77 69 67 77 78 80 82 82 82 82 81 82 85 89 93 93 91 90 89 89 88 92 90 80 81 80 82 88 82 74 60 42 41 39 42
Wind_Direction_500mb
156 157 148 150 152 155 159 143 133 108 99 105 111 110 111 118 110 131 147 140 129 99 97 100 96 99 93 85 94 84 79 76 82 85 82 75 72 76 73 75 72 62 55
154 155 152 153 158 149 140 135 101 81 84 104 125 108 100 101 107 112 150 140 107 103 103 104 97 97 90 83 84 77 75 69 65 71 80 74 67 62 67 68 68 65 61
164 161 161 161 170 162 139 82 69 65 52 80 136 118 104 101 97 108 128 124 115 113 109 109 100 98 88 80 79 83 68 57 58 57 77 67 70 60 63 62 65 61 56
175 171 170 173 178 176 122 95 73 56 55 91 117 115 121 108 97 102 117 123 119 115 114 107 104 101 98 87 85 80 65 61 57 56 65 67 66 46 47 56 67 65 65
185 182 180 182 183 183 161 124 80 52 41 125 138 139 124 129 109 109 124 131 125 124 115 116 118 112 103 92 86 87 80 69 58 55 56 59 65 46 40 55 68 74 54
189 187 189 192 194 195 186 167 101 55 50 150 158 147 140 142 149 149 141 138 143 133 124 131 126 118 120 102 74 81 84 65 60 57 58 54 58 37 40 61 63 52 29
189 192 197 203 205 207 206 203 194 205 143 169 184 170 160 145 152 170 161 157 148 137 135 140 136 131 119 115 89 86 79 69 57 49 48 42 40 38 43 51 57 38 35
203 199 203 208 213 216 215 207 211 230 233 197 195 197 176 188 174 180 170 167 171 150 149 147 146 141 140 139 136 85 74 60 49 41 39 36 35 36 37 37 38 28 26
205 210 210 215 218 223 221 212 216 231 232 220 204 202 196 195 207 193 168 178 176 161 162 162 165 164 168 168 158 124 28 27 26 27 29 28 25 24 24 25 24 13 6
207 210 219 223 222 224 224 223 222 227 237 223 213 209 217 215 211 211 205 197 187 178 178 182 185 188 193 205 209 224 313 356 3 360 10 17 14 13 12 12 11 4 360
216 220 223 228 227 229 226 226 233 233 234 234 219 214 215 216 215 212 215 218 201 195 193 198 199 206 213 223 233 245 286 310 322 335 345 356 353 358 360 3 1 355 352
221 223 226 231 231 231 232 232 230 235 245 239 230 218 222 219 220 220 220 227 219 203 203 207 215 220 226 234 244 257 278 297 305 313 320 332 332 340 342 346 348 346 348
235 231 232 232 233 235 235 235 237 238 236 241 235 225 224 226 224 224 223 228 226 218 218 221 225 229 234 241 249 261 276 282 292 300 305 312 314 321 326 330 333 338 344
239 241 239 238 238 238 236 239 242 242 242 238 236 234 227 232 232 230 231 232 235 231 230 231 234 236 241 246 254 265 271 276 281 288 295 297 300 307 311 316 324 329 335
244 245 244 242 243 242 242 242 240 242 243 241 242 235 235 230 237 240 238 240 243 242 239 240 243 244 248 251 257 265 266 269 272 280 285 288 293 298 300 305 309 315 317
254 251 247 245 247 248 248 248 246 245 245 243 241 242 242 238 243 245 244 245 247 248 246 247 249 251 253 255 258 265 266 269 274 275 277 278 281 288 291 296 298 299 301
261 257 252 250 249 253 254 253 250 251 248 247 248 245 244 247 248 247 247 248 250 252 251 250 249 251 255 259 261 263 267 270 269 271 274 276 278 284 288 290 288 283 284
257 254 255 252 252 252 255 256 255 253 253 252 253 248 249 248 248 248 250 252 253 251 253 252 254 255 257 261 264 264 267 269 269 269 270 273 275 281 282 283 279 272 271
260 256 254 252 251 253 255 255 256 258 256 256 256 252 250 251 250 251 254 255 253 253 253 254 254 257 259 263 267 268 267 269 269 270 270 274 276 278 280 276 270 264 263
261 257 255 254 254 252 254 254 254 256 257 256 256 255 253 252 253 254 254 255 255 253 253 253 255 256 261 263 267 269 269 269 271 273 275 276 276 273 272 265 261 257 260
273 260 252 252 254 249 246 248 249 251 253 254 255 255 254 253 253 255 257 257 255 256 256 257 258 258 259 262 267 270 271 272 272 275 279 278 271 267 260 252 254 259 254
269 268 256 248 248 250 250 252 252 255 257 258 259 259 260 258 257 258 259 260 260 259 259 258 255 256 257 256 259 268 281 281 279 279 275 273 268 258 256 256 262 258 241
259 259 260 256 249 250 250 250 252 252 255 256 256 257 257 258 260 260 262 263 264 263 262 262 260 258 260 259 254 251 259 256 276 280 278 280 280 271 255 271 273 240 257
259 254 257 260 255 250 251 250 253 256 258 264 262 264 263 262 262 264 263 264 264 265 263 264 262 260 258 259 257 253 253 256 270 285 286 278 273 266 267 276 260 265 266
253 254 254 255 261 254 250 252 256 258 266 267 266 267 268 267 266 265 264 265 266 266 267 264 264 262 260 258 258 259 258 258 259 258 275 280 276 270 259 271 256 264 266
260 254 254 252 258 264 255 255 254 260 267 266 270 269 270 271 273 273 272 269 268 267 267 267 266 265 264 263 261 260 258 255 258 256 258 269 274 278 278 267 264 266 267
Wind_Speed_850mb
30 26 29 28 25 18 16 15 13 12 14 15 18 20 19 17 17 21 20 17 20 24 27 31 29 31 30 27 27 28 32 31 32 33 32 33 34 30 27 30 32 33 33
31 30 29 25 21 17 18 14 11 9 11 11 14 22 19 20 21 20 24 15 24 21 24 28 27 27 24 25 27 25 30 31 27 28 33 33 33 32 26 27 28 27 26
31 30 29 26 20 18 12 10 10 10 8 8 16 18 14 18 19 19 22 18 22 22 24 22 25 24 24 26 26 26 32 33 27 24 31 28 33 33 34 29 30 29 25
29 28 29 28 21 12 6 7 8 9 7 9 12 18 17 15 15 16 18 18 22 22 20 22 24 21 21 26 26 26 26 28 31 27 29 29 30 26 30 27 26 31 35
30 26 26 25 20 13 6 5 6 8 6 7 17 15 10 12 11 11 13 16 18 20 19 22 21 18 18 20 22 21 24 28 28 29 32 31 29 21 24 25 22 21 23
30 28 26 24 22 15 8 5 3 5 4 5 15 15 13 10 9 11 11 14 16 18 21 21 18 17 16 14 15 24 21 22 24 26 27 26 22 18 20 21 18 18 20
32 30 28 25 22 17 12 10 5 2 3 6 13 16 23 15 10 14 15 14 13 16 19 19 17 15 14 11 10 14 14 15 18 22 20 20 21 19 18 16 11 15 18
30 32 29 26 23 20 18 16 10 5 4 11 15 16 18 20 11 12 14 12 13 14 16 16 14 12 11 9 7 8 8 9 14 17 19 20 22 19 17 16 13 14 15
30 31 30 27 25 23 22 20 15 10 8 14 18 15 12 14 13 9 14 15 12 11 13 14 13 11 10 8 5 1 3 7 10 13 16 18 18 19 17 16 14 14 14
33 31 29 29 28 27 26 25 21 17 13 12 19 17 15 12 12 10 9 13 13 15 15 15 14 12 10 9 7 5 3 5 8 10 11 14 15 16 17 17 16 16 15
39 36 32 31 31 29 30 30 27 23 20 17 20 23 22 20 16 13 13 12 16 18 17 17 16 15 13 12 12 9 8 7 8 10 11 11 13 14 15 15 16 17 18
46 43 40 34 34 34 34 33 32 29 27 23 21 26 26 24 22 19 17 15 15 19 21 19 19 19 17 16 15 13 11 12 12 10 11 12 13 14 15 15 15 17 18
42 44 44 40 36 38 38 37 35 34 33 30 26 28 30 30 28 25 21 19 18 20 21 22 23 21 20 19 18 17 14 14 16 14 13 13 15 15 16 17 17 17 16
48 46 44 45 42 41 39 40 37 38 37 36 31 29 33 34 31 28 25 22 22 22 24 26 26 25 24 22 22 20 19 18 19 18 16 17 17 16 17 18 20 20 15
53 51 49 47 49 47 45 42 41 40 41 39 36 36 34 34 32 32 29 28 26 27 27 29 30 29 28 27 26 24 23 22 21 20 19 20 20 19 20 20 21 20 18
55 56 54 55 52 52 51 49 46 42 39 40 43 41 41 40 36 36 34 33 33 31 29 32 33 33 33 34 31 28 26 24 23 24 24 24 24 23 24 24 23 23 21
59 60 60 60 58 57 56 54 52 50 46 45 45 46 47 47 43 40 40 39 34 35 33 36 38 39 40 39 35 32 31 28 29 28 27 28 26 26 26 26 26 26 23
54 66 65 64 65 63 60 57 57 56 55 53 50 50 50 50 48 46 45 44 38 40 41 41 40 43 43 42 39 35 37 36 35 33 33 33 32 31 31 29 28 28 26
54 58 64 67 70 67 65 62 60 60 60 59 59 56 55 53 52 51 49 45 43 47 48 46 45 47 46 45 43 42 42 44 41 40 40 37 35 34 35 30 27 26 26
55 65 65 64 68 70 68 68 67 66 64 66 67 65 62 60 57 55 54 51 49 53 55 53 51 49 49 47 48 51 49 49 49 48 46 42 40 38 36 31 28 26 25
48 58 72 67 63 71 76 76 77 78 72 73 74 71 69 67 64 63 60 55 56 60 58 57 56 54 54 50 52 56 56 56 55 53 49 46 42 38 37 36 32 30 27
57 50 59 74 71 63 73 78 77 75 77 76 76 78 76 74 72 71 67 64 63 64 63 64 64 64 61 55 56 54 57 57 52 43 36 27 27 33 34 34 35 36 24
64 60 52 60 76 69 64 73 79 81 80 81 85 83 82 80 79 77 76 74 73 70 71 69 69 70 70 64 62 54 22 20 27 33 37 37 40 36 31 29 33 26 32
60 65 57 50 63 76 71 69 76 79 83 81 80 81 81 81 83 83 83 83 82 80 79 78 73 73 74 79 72 73 73 73 45 41 34 32 38 39 42 35 29 33 38
45 52 63 53 53 68 79 72 68 76 77 79 81 78 76 76 77 77 82 87 88 89 87 87 85 81 81 82 85 82 78 76 78 77 71 69 58 47 35 37 35 38 38
21 29 34 48 51 52 72 77 77 69 67 77 78 80 82 82 82 82 81 82 85 89 93 93 91 90 89 89 88 92 90 80 81 80 82 88 82 74 60 42 41 39 42
Wind_Direction_850mb
156 157 148 150 152 155 159 143 133 108 99 105 111 110 111 118 110 131 147 140 129 99 97 100 96 99 93 85 94 84 79 76 82 85 82 75 72 76 73 75 72 62 55
154 155 152 153 158 149 140 135 101 81 84 104 125 108 100 101 107 112 150 140 107 103 103 104 97 97 90 83 84 77 75 69 65 71 80 74 67 62 67 68 68 65 61
164 161 161 161 170 162 139 82 69 65 52 80 136 118 104 101 97 108 128 124 115 113 109 109 100 98 88 80 79 83 68 57 58 57 77 67 70 60 63 62 65 61 56
175 171 170 173 178 176 122 95 73 56 55 91 117 115 121 108 97 102 117 123 119 115 114 107 104 101 98 87 85 80 65 61 57 56 65 67 66 46 47 56 67 65 65
185 182 180 182 183 183 161 124 80 52 41 125 138 139 124 129 109 109 124 131 125 124 115 116 118 112 103 92 86 87 80 69 58 55 56 59 65 46 40 55 68 74 54
189 187 189 192 194 195 186 167 101 55 50 150 158 147 140 142 149 149 141 138 143 133 124 131 126 118 120 102 74 81 84 65 60 57 58 54 58 37 40 61 63 52 29
189 192 197 203 205 207 206 203 194 205 143 169 184 170 160 145 152 170 161 157 148 137 135 140 136 131 119 115 89 86 79 69 57 49 48 42 40 38 43 51 57 38 35
203 199 203 208 213 216 215 207 211 230 233 197 195 197 176 188 174 180 170 167 171 150 149 147 146 141 140 139 136 85 74 60 49 41 39 36 35 36 37 37 38 28 26
205 210 210 215 218 223 221 212 216 231 232 220 204 202 196 195 207 193 168 178 176 161 162 162 165 164 168 168 158 124 28 27 26 27 29 28 25 24 24 25 24 13 6
207 210 219 223 222 224 224 223 222 227 237 223 213 209 217 215 211 211 205 197 187 178 178 182 185 188 193 205 209 224 313 356 3 360 10 17 14 13 12 12 11 4 360
216 220 223 228 227 229 226 226 233 233 234 234 219 214 215 216 215 212 215 218 201 195 193 198 199 206 213 223 233 245 286 310 322 335 345 356 353 358 360 3 1 355 352
221 223 226 231 231 231 232 232 230 235 245 239 230 218 222 219 220 220 220 227 219 203 203 207 215 220 226 234 244 257 278 297 305 313 320 332 332 340 342 346 348 346 348
235 231 232 232 233 235 235 235 237 238 236 241 235 225 224 226 224 224 223 228 226 218 218 221 225 229 234 241 249 261 276 282 292 300 305 312 314 321 326 330 333 338 344
239 241 239 238 238 238 236 239 242 242 242 238 236 234 227 232 232 230 231 232 235 231 230 231 234 236 241 246 254 265 271 276 281 288 295 297 300 307 311 316 324 329 335
244 245 244 242 243 242 242 242 240 242 243 241 242 235 235 230 237 240 238 240 243 242 239 240 243 244 248 251 257 265 266 269 272 280 285 288 293 298 300 305 309 315 317
254 251 247 245 247 248 248 248 246 245 245 243 241 242 242 238 243 245 244 245 247 248 246 247 249 251 253 255 258 265 266 269 274 275 277 278 281 288 291 296 298 299 301
261 257 252 250 249 253 254 253 250 251 248 247 248 245 244 247 248 247 247 248 250 252 251 250 249 251 255 259 261 263 267 270 269 271 274 276 278 284 288 290 288 283 284
257 254 255 252 252 252 255 256 255 253 253 252 253 248 249 248 248 248 250 252 253 251 253 252 254 255 257 261 264 264 267 269 269 269 270 273 275 281 282 283 279 272 271
260 256 254 252 251 253 255 255 256 258 256 256 256 252 250 251 250 251 254 255 253 253 253 254 254 257 259 263 267 268 267 269 269 270 270 274 276 278 280 276 270 264 263
261 257 255 254 254 252 254 254 254 256 257 256 256 255 253 252 253 254 254 255 255 253 253 253 255 256 261 263 267 269 269 269 271 273 275 276 276 273 272 265 261 257 260
273 260 252 252 254 249 246 248 249 251 253 254 255 255 254 253 253 255 257 257 255 256 256 257 258 258 259 262 267 270 271 272 272 275 279 278 271 267 260 252 254 259 254
269 268 256 248 248 250 250 252 252 255 257 258 259 259 260 258 257 258 259 260 260 259 259 258 255 256 257 256 259 268 281 281 279 279 275 273 268 258 256 256 262 258 241
259 259 260 256 249 250 250 250 252 252 255 256 256 257 257 258 260 260 262 263 264 263 262 262 260 258 260 259 254 251 259 256 276 280 278 280 280 271 255 271 273 240 257
259 254 257 260 255 250 251 250 253 256 258 264 262 264 263 262 262 264 263 264 264 265 263 264 262 260 258 259 257 253 253 256 270 285 286 278 273 266 267 276 260 265 266
253 254 254 255 261 254 250 252 256 258 266 267 266 267 268 267 266 265 264 265 266 266 267 264 264 262 260 258 258 259 258 258 259 258 275 280 276 270 259 271 256 264 266
260 254 254 252 258 264 255 255 254 260 267 266 270 269 270 271 273 273 272 269 268 267 267 267 266 265 264 263 261 260 258 255 258 256 258 269 274 278 278 267 264 266 267